Weather History for KPUC - November, 2012

Change the Weather History Date:

Monday, November 5, 2012

  Actual Average Record
Temperature  
Mean Temperature 55 °F -  
Max Temperature 66 °F 47 °F 68 °F (1980)
Min Temperature 44 °F 28 °F 21 °F (2003)
Degree Days  
Heating Degree Days 10    
Growing Degree Days 5 (Base 50)    
Moisture  
Dew Point 27 °F    
Average Humidity 35    
Maximum Humidity 49    
Minimum Humidity 22    
Precipitation  
Precipitation 0.00 in - - ()
Sea Level Pressure  
Sea Level Pressure 30.27 in    
Wind  
Wind Speed 8 mph (NW)    
Max Wind Speed 14 mph    
Max Gust Speed -    
Visibility 10 miles    
Events      
Averages and records for this station are not official NWS values.
T = Trace of Precipitation, MM = Missing Value Source: NWS Daily Summary

Daily Weather History Graph

Daily Weather History Graph

Search for Another Location

Airport or City:

Trip Planner

Search our weather history database for the weather conditions in past years. The results will help you decide how hot, cold, wet, or windy it might be!

Date:

Astronomy

Nov. 05, 2012 Rise Set
Actual Time 6:56 AM MST 5:16 PM MST
Civil Twilight 6:28 AM MST 5:44 PM MST
Nautical Twilight 5:56 AM MST 6:16 PM MST
Astronomical Twilight 5:24 AM MST 6:47 PM MST
Moon 10:57 PM MST (11/5) 12:17 PM MST (11/5)
Length of Visible Light 11h 16m
Length of Day
10h 19m
Waning Gibbous, 62% of the Moon is Illuminated
Nov 5
Waning Gibbous
Nov 6
Last Quarter
Nov 13
New
Nov 20
First Quarter
Nov 28
Full

Hourly Weather History & Observations

Time (MST) Temp. Windchill Dew Point Humidity Pressure Visibility Wind Dir Wind Speed Gust Speed Precip Events Conditions
12:53 AM 54.0 °F - 25.0 °F 33% 30.28 in 10.0 mi NW 13.8 mph - N/A   Clear
1:53 AM 51.1 °F - 26.1 °F 38% 30.29 in 10.0 mi NNW 6.9 mph - N/A   Clear
2:53 AM 44.1 °F 42.5 °F 25.0 °F 47% 30.30 in 10.0 mi ENE 3.5 mph - N/A   Clear
3:53 AM 46.0 °F 43.1 °F 27.0 °F 47% 30.28 in 10.0 mi North 5.8 mph - N/A   Clear
4:53 AM 44.1 °F 41.5 °F 26.1 °F 49% 30.30 in 10.0 mi North 4.6 mph - N/A   Clear
5:53 AM 48.0 °F - 28.0 °F 46% 30.31 in 10.0 mi NNW 9.2 mph - N/A   Clear
6:53 AM 45.0 °F 41.2 °F 27.0 °F 49% 30.35 in 10.0 mi North 6.9 mph - N/A   Clear
7:53 AM 48.9 °F - 28.0 °F 44% 30.33 in 10.0 mi SW 3.5 mph - N/A   Clear
8:53 AM 51.1 °F - 27.0 °F 39% 30.34 in 10.0 mi SSE 3.5 mph - N/A   Clear
9:53 AM 55.0 °F - 28.0 °F 35% 30.33 in 10.0 mi SE 4.6 mph - N/A   Clear
10:53 AM 57.9 °F - 28.0 °F 32% 30.32 in 10.0 mi South 4.6 mph - N/A   Clear
11:53 AM 63.0 °F - 28.9 °F 28% 30.26 in 10.0 mi South 5.8 mph - N/A   Clear
12:53 PM 64.9 °F - 28.9 °F 26% 30.21 in 10.0 mi South 5.8 mph - N/A   Clear
1:53 PM 66.9 °F - 28.9 °F 24% 30.20 in 10.0 mi South 6.9 mph - N/A   Clear
2:53 PM 66.0 °F - 28.0 °F 24% 30.22 in 10.0 mi ESE 6.9 mph - N/A   Clear
3:53 PM 66.0 °F - 28.0 °F 24% 30.21 in 10.0 mi SE 5.8 mph - N/A   Clear
4:53 PM 64.9 °F - 27.0 °F 24% 30.22 in 10.0 mi SW 4.6 mph - N/A   Clear
5:53 PM 62.1 °F - 23.0 °F 22% 30.24 in 10.0 mi NNW 10.4 mph - N/A   Clear
6:53 PM 57.0 °F - 25.0 °F 29% 30.28 in 10.0 mi North 5.8 mph - N/A   Clear
7:53 PM 55.9 °F - 27.0 °F 33% 30.26 in 10.0 mi NW 5.8 mph - N/A   Clear
8:53 PM 57.0 °F - 27.0 °F 32% 30.25 in 10.0 mi NW 12.7 mph - N/A   Clear
9:53 PM 54.0 °F - 25.0 °F 33% 30.26 in 10.0 mi NNW 3.5 mph - N/A   Clear
10:53 PM 52.0 °F - 25.0 °F 35% 30.26 in 10.0 mi West 8.1 mph - N/A   Clear
11:53 PM 54.0 °F - 27.0 °F 35% 30.22 in 10.0 mi NW 11.5 mph - N/A   Clear